Location: Centerville
(32.8776°N, 96.6203°W)
Time: 00:44:02
(UTC+00:00)

Cosmos 1626 - Pass Details

Date: 17 June 2021
Orbit: 489 x 493 km, 82.5° (Epoch: 01 August)

Event Time Altitude Azimuth Distance (km) Brightness Sun altitude
Exits shadow 03:45:14 34° 50° (NE) 831 3.2 -21.7°
Drops below altitude 10° 03:47:43 10° 21° (NNE) 1,688 5.2 -22.1°
Sets 03:49:53 0° 15° (NNE) 2,574 6.3 -22.4°
